Mumbai, India

10:12 PM IST on April 22, 2018 (GMT +0530)
Chhatrapati Shivaji International

Weather History for VABB - October, 2012

Change the Weather History Date:

Saturday, October 6, 2012

  Actual Average Record
Temperature  
Mean Temperature 82 °F -  
Max Temperature 87 °F 89 °F 100 °F (2002)
Min Temperature 76 °F 75 °F 73 °F (2016)
Cooling Degree Days 16    
Growing Degree Days 32 (Base 50)    
Moisture  
Dew Point 77 °F    
Average Humidity 86    
Maximum Humidity 94    
Minimum Humidity 72    
Precipitation  
Precipitation 1.18 in - - ()
Sea Level Pressure  
Sea Level Pressure 29.83 in    
Wind  
Wind Speed 4 mph ()    
Max Wind Speed 14 mph    
Max Gust Speed 21 mph    
Visibility 1.9 miles    
Events Rain , Thunderstorm    
Averages and records for this station are not official NWS values.
T = Trace of Precipitation, MM = Missing Value Source: Averaged Metar Reports

Daily Weather History Graph

Daily Weather History Graph

Search for Another Location

Airport or City:

Astronomy

Oct. 06, 2012 Rise Set
Actual Time 6:30 AM IST 6:22 PM IST
Civil Twilight 6:08 AM IST 6:44 PM IST
Nautical Twilight 5:43 AM IST 7:09 PM IST
Astronomical Twilight 5:17 AM IST 7:35 PM IST
Moon 10:50 PM IST (10/6) 11:27 AM IST (10/6)
Length of Visible Light 12h 36m
Length of Day
11h 52m
Waning Gibbous, 69% of the Moon is Illuminated
Oct 6
Waning Gibbous
Oct 8
Last Quarter
Oct 15
New
Oct 22
First Quarter
Oct 30
Full

Hourly Weather History & Observations

Time (IST) Temp. Heat Index Dew Point Humidity Pressure Visibility Wind Dir Wind Speed Gust Speed Precip Events Conditions
12:10 AM 78.8 °F - 77.0 °F 94% 29.83 in 2.2 mi South 3.5 mph - N/A   Haze
12:40 AM 80.6 °F 87.1 °F 77.0 °F 89% 29.83 in 2.2 mi ENE 3.5 mph - N/A   Haze
1:10 AM 80.6 °F 86.2 °F 75.2 °F 84% 29.83 in 2.2 mi East 4.6 mph - N/A   Haze
1:40 AM 80.6 °F 87.1 °F 77.0 °F 89% 29.80 in 2.2 mi Calm Calm - N/A   Haze
2:10 AM 80.6 °F 87.1 °F 77.0 °F 89% 29.80 in 2.2 mi Calm Calm - N/A   Haze
2:30 AM 78 °F - 76 °F 92% 29.79 in 1 mi Calm Calm - -   Haze
2:40 AM 78.8 °F - 75.2 °F 89% 29.80 in 2.2 mi ENE 3.5 mph - N/A   Haze
3:10 AM 80.6 °F 87.1 °F 77.0 °F 89% 29.80 in 2.2 mi Calm Calm - N/A   Haze
3:40 AM 78.8 °F - 77.0 °F 94% 29.80 in 2.2 mi East 3.5 mph - N/A   Haze
4:10 AM 78.8 °F - 77.0 °F 94% 29.80 in 2.2 mi East 3.5 mph - N/A   Haze
4:40 AM 78.8 °F - 77.0 °F 94% 29.80 in - SE 3.5 mph - N/A   Haze
5:10 AM 78.8 °F - 77.0 °F 94% 29.80 in - East 5.8 mph - N/A   Haze
5:30 AM 78 °F - 76 °F 90% 29.81 in 1 mi Calm Calm - -   Haze
5:40 AM 78.8 °F - 77.0 °F 94% 29.80 in 2.2 mi SE 5.8 mph - N/A   Haze
6:40 AM 78.8 °F - 77.0 °F 94% 29.83 in 1.6 mi ENE 3.5 mph - N/A   Haze
7:10 AM 78.8 °F - 77.0 °F 94% 29.83 in 1.6 mi ENE 4.6 mph - N/A   Haze
7:40 AM 80.6 °F 87.1 °F 77.0 °F 89% 29.86 in 1.6 mi East 4.6 mph - N/A   Haze
8:10 AM 82.4 °F 90.9 °F 77.0 °F 84% 29.86 in 1.6 mi ESE 4.6 mph - N/A   Haze
8:30 AM 82 °F - 76 °F 78% 29.87 in 1 mi Calm Calm - -   Haze
9:10 AM 82.4 °F 90.9 °F 77.0 °F 84% 29.89 in 1.9 mi NE 4.6 mph - N/A   Haze
9:40 AM 84.2 °F 94.1 °F 77.0 °F 79% 29.89 in 1.9 mi NNE 4.6 mph - N/A   Haze
10:10 AM 84.2 °F 94.1 °F 77.0 °F 79% 29.89 in 2.2 mi Variable 4.6 mph - N/A   Haze
10:40 AM 86.0 °F 96.9 °F 77.0 °F 74% 29.89 in 2.2 mi Variable 3.5 mph - N/A   Haze
11:10 AM 86.0 °F 99.3 °F 78.8 °F 79% 29.86 in 2.2 mi Variable 4.6 mph - N/A   Haze
11:30 AM 86 °F - 78 °F 73% 29.87 in 1 mi NNW 4.6 mph - -   Haze
12:10 PM 84.2 °F 96.1 °F 78.8 °F 84% 29.86 in 1.9 mi West 9.2 mph - N/A   Haze
12:40 PM 84.2 °F 96.1 °F 78.8 °F 84% 29.83 in 1.6 mi WSW 13.8 mph - N/A Rain Light Rain Showers
1:10 PM 84.2 °F 98.3 °F 80.6 °F 89% 29.83 in 1.7 mi WNW 8.1 mph - N/A   Partly Cloudy
2:10 PM 86.0 °F 99.3 °F 78.8 °F 79% 29.80 in 2.5 mi WNW 10.4 mph - N/A   Haze
2:30 PM 87 °F - 79 °F 72% 29.79 in 1 mi WNW 4.6 mph - - Rain Light Rain
2:40 PM 86.0 °F 99.3 °F 78.8 °F 79% 29.80 in 2.5 mi WNW 10.4 mph - N/A   Haze
3:40 PM 87.8 °F 102.5 °F 78.8 °F 75% 29.77 in 3.1 mi West 9.2 mph 20.7 mph N/A   Haze
4:10 PM 87.8 °F 102.5 °F 78.8 °F 75% 29.77 in 3.1 mi WNW 10.4 mph - N/A   Haze
4:40 PM 86.0 °F 99.3 °F 78.8 °F 79% 29.77 in 3.1 mi WNW 10.4 mph - N/A   Haze
5:10 PM 86.0 °F 99.3 °F 78.8 °F 79% 29.80 in 2.5 mi WNW 10.4 mph - N/A   Haze
5:30 PM 86 °F - 78 °F 73% 29.79 in 1 mi NW 4.6 mph - - Thunderstorm Light Thunderstorm
5:40 PM 86.0 °F 99.3 °F 78.8 °F 79% 29.80 in 2.5 mi WNW 10.4 mph - N/A   Haze
7:40 PM 77.0 °F - 75.2 °F 94% 29.83 in 1.6 mi WNW 6.9 mph - N/A Rain , Thunderstorm Light Thunderstorms and Rain
8:10 PM 78.8 °F - 75.2 °F 89% 29.83 in 1.6 mi WSW 3.5 mph - N/A Thunderstorm Thunderstorm
8:30 PM 78 °F - 76 °F 90% 29.86 in 1 mi Calm Calm - - Rain Light Rain
9:10 PM 78.8 °F - 75.2 °F 89% 29.86 in 1.6 mi South 4.6 mph - N/A   Haze
9:40 PM 78.8 °F - 75.2 °F 89% 29.89 in 1.6 mi SSE 3.5 mph - N/A   Haze
10:10 PM 78.8 °F - 75.2 °F 89% 29.89 in 1.6 mi ESE 3.5 mph - N/A   Light Drizzle
10:40 PM 78.8 °F - 75.2 °F 89% 29.86 in 1.6 mi SSE 3.5 mph - N/A Thunderstorm Thunderstorm
11:10 PM 80.6 °F 87.1 °F 77.0 °F 89% 29.86 in 1.6 mi South 4.6 mph - N/A Thunderstorm Thunderstorm
11:30 PM 79 °F - 77 °F 92% 29.86 in 1 mi Calm Calm - -   Mostly Cloudy
11:40 PM 80.6 °F 87.1 °F 77.0 °F 89% 29.86 in 1.6 mi South 4.6 mph - N/A Thunderstorm Thunderstorm